QPF
0.01 0.02 0.03 0.04 0.04 0.03 0.03 0.02 0.03 0.03 0.03 0.03 0.03 0.03 0.03 0.04 0.05 0.07 0.06 0.07 0.06 0.05 0.05 0.06 0.05 0.05 0.06 0.05 0.06 0.06 0.08 0.10 0.11 0.09 0.07 0.04 0.02 0.01 0.01 0.01 0.01 0.01 0.00
0.01 0.01 0.02 0.03 0.03 0.03 0.03 0.03 0.03 0.03 0.03 0.03 0.03 0.04 0.05 0.06 0.07 0.07 0.05 0.05 0.05 0.04 0.04 0.04 0.03 0.05 0.07 0.06 0.06 0.05 0.06 0.08 0.10 0.10 0.08 0.07 0.06 0.04 0.03 0.02 0.01 0.01 0.01
0.02 0.01 0.02 0.02 0.02 0.02 0.02 0.03 0.02 0.02 0.02 0.02 0.02 0.03 0.05 0.06 0.08 0.07 0.06 0.04 0.04 0.04 0.04 0.03 0.03 0.04 0.05 0.06 0.06 0.05 0.05 0.07 0.09 0.09 0.07 0.07 0.06 0.05 0.05 0.03 0.02 0.02 0.01
0.02 0.01 0.02 0.02 0.03 0.03 0.03 0.03 0.03 0.03 0.03 0.02 0.03 0.04 0.04 0.05 0.08 0.08 0.06 0.05 0.04 0.04 0.04 0.03 0.03 0.03 0.04 0.05 0.05 0.06 0.06 0.06 0.07 0.07 0.07 0.06 0.06 0.05 0.08 0.05 0.03 0.03 0.02
0.02 0.03 0.03 0.04 0.04 0.04 0.03 0.02 0.03 0.04 0.05 0.05 0.05 0.07 0.05 0.05 0.04 0.04 0.05 0.05 0.05 0.04 0.03 0.03 0.02 0.02 0.02 0.02 0.03 0.03 0.04 0.05 0.05 0.06 0.06 0.07 0.08 0.07 0.07 0.08 0.06 0.05 0.04
0.02 0.03 0.03 0.03 0.03 0.03 0.03 0.03 0.02 0.05 0.07 0.07 0.08 0.07 0.05 0.03 0.02 0.02 0.03 0.05 0.06 0.06 0.05 0.05 0.04 0.02 0.02 0.02 0.02 0.02 0.03 0.04 0.04 0.05 0.06 0.08 0.08 0.07 0.07 0.08 0.07 0.07 0.05
0.03 0.03 0.03 0.02 0.02 0.03 0.04 0.05 0.05 0.06 0.06 0.07 0.06 0.05 0.04 0.03 0.02 0.02 0.02 0.04 0.05 0.06 0.06 0.06 0.04 0.03 0.03 0.03 0.03 0.03 0.03 0.04 0.06 0.07 0.06 0.07 0.07 0.08 0.09 0.08 0.09 0.09 0.07
0.03 0.03 0.02 0.02 0.02 0.03 0.05 0.05 0.05 0.05 0.05 0.05 0.04 0.03 0.03 0.02 0.03 0.04 0.05 0.04 0.04 0.04 0.04 0.05 0.04 0.04 0.04 0.06 0.07 0.06 0.04 0.04 0.06 0.07 0.06 0.05 0.04 0.06 0.08 0.09 0.08 0.07 0.07
0.03 0.02 0.02 0.02 0.02 0.02 0.02 0.02 0.04 0.04 0.05 0.04 0.04 0.03 0.03 0.03 0.04 0.04 0.05 0.04 0.04 0.04 0.04 0.04 0.04 0.04 0.04 0.05 0.06 0.06 0.07 0.05 0.03 0.05 0.05 0.04 0.04 0.05 0.06 0.08 0.08 0.08 0.07
0.01 0.01 0.01 0.01 0.01 0.02 0.02 0.02 0.03 0.03 0.03 0.03 0.04 0.04 0.04 0.04 0.05 0.05 0.04 0.04 0.04 0.04 0.04 0.04 0.05 0.06 0.07 0.06 0.05 0.05 0.05 0.05 0.05 0.06 0.05 0.05 0.04 0.05 0.06 0.06 0.07 0.08 0.07
0.01 0.01 0.01 0.01 0.01 0.02 0.01 0.01 0.02 0.02 0.02 0.03 0.03 0.03 0.04 0.04 0.04 0.04 0.03 0.03 0.04 0.06 0.07 0.06 0.05 0.04 0.04 0.03 0.03 0.03 0.04 0.03 0.03 0.03 0.03 0.03 0.04 0.04 0.05 0.06 0.06 0.07 0.07
0.01 0.01 0.02 0.02 0.01 0.01 0.02 0.01 0.02 0.02 0.02 0.03 0.03 0.03 0.05 0.05 0.04 0.03 0.02 0.02 0.03 0.03 0.04 0.03 0.03 0.02 0.01 0.01 0.01 0.01 0.02 0.01 0.02 0.02 0.02 0.03 0.03 0.04 0.05 0.06 0.06 0.07 0.06
0.01 0.02 0.02 0.03 0.02 0.03 0.03 0.02 0.03 0.03 0.03 0.03 0.03 0.03 0.03 0.04 0.02 0.02 0.02 0.01 0.01 0.01 0.02 0.01 0.01 0.01 0.01 0.01 0.01 0.01 0.01 0.01 0.02 0.02 0.03 0.04 0.04 0.05 0.05 0.06 0.05 0.05 0.05
0.01 0.01 0.02 0.03 0.03 0.03 0.04 0.04 0.04 0.04 0.04 0.05 0.04 0.03 0.03 0.04 0.03 0.02 0.02 0.01 0.02 0.02 0.02 0.02 0.02 0.02 0.01 0.01 0.01 0.01 0.01 0.01 0.03 0.04 0.05 0.04 0.04 0.04 0.03 0.03 0.03 0.04 0.04
0.01 0.01 0.01 0.02 0.02 0.03 0.04 0.05 0.04 0.05 0.04 0.04 0.03 0.02 0.02 0.02 0.02 0.02 0.02 0.02 0.01 0.02 0.02 0.02 0.02 0.01 0.01 0.01 0.01 0.02 0.03 0.04 0.04 0.05 0.04 0.03 0.03 0.02 0.02 0.03 0.03 0.03 0.04
0.01 0.01 0.01 0.02 0.03 0.04 0.04 0.05 0.04 0.04 0.04 0.04 0.04 0.03 0.02 0.02 0.02 0.02 0.02 0.01 0.01 0.01 0.02 0.03 0.02 0.03 0.02 0.03 0.03 0.03 0.04 0.04 0.04 0.04 0.03 0.03 0.02 0.02 0.02 0.02 0.02 0.03 0.04
0.02 0.02 0.02 0.03 0.05 0.05 0.06 0.06 0.05 0.05 0.05 0.05 0.04 0.03 0.03 0.02 0.02 0.03 0.02 0.02 0.02 0.02 0.02 0.03 0.02 0.03 0.03 0.04 0.05 0.05 0.05 0.04 0.04 0.04 0.03 0.03 0.02 0.03 0.04 0.04 0.05 0.05 0.05
0.03 0.03 0.03 0.04 0.05 0.06 0.06 0.06 0.05 0.04 0.04 0.04 0.05 0.04 0.03 0.04 0.04 0.04 0.04 0.05 0.06 0.04 0.04 0.04 0.03 0.03 0.04 0.05 0.05 0.05 0.04 0.04 0.03 0.03 0.03 0.03 0.03 0.04 0.04 0.05 0.05 0.04 0.03
0.04 0.03 0.04 0.05 0.06 0.06 0.06 0.07 0.06 0.07 0.08 0.07 0.06 0.06 0.05 0.04 0.04 0.04 0.03 0.02 0.02 0.03 0.04 0.04 0.04 0.03 0.03 0.03 0.04 0.04 0.05 0.05 0.04 0.04 0.04 0.04 0.04 0.04 0.04 0.04 0.03 0.03 0.03
0.04 0.04 0.04 0.06 0.08 0.09 0.09 0.10 0.10 0.10 0.12 0.10 0.07 0.06 0.05 0.03 0.03 0.02 0.02 0.02 0.02 0.02 0.02 0.03 0.03 0.03 0.03 0.03 0.04 0.04 0.04 0.04 0.05 0.05 0.05 0.04 0.04 0.05 0.05 0.04 0.03 0.03 0.02
0.04 0.04 0.04 0.04 0.07 0.10 0.11 0.12 0.14 0.13 0.11 0.08 0.06 0.06 0.05 0.03 0.02 0.02 0.01 0.01 0.01 0.01 0.01 0.01 0.02 0.03 0.03 0.03 0.04 0.04 0.05 0.05 0.06 0.06 0.06 0.06 0.05 0.04 0.04 0.03 0.03 0.03 0.04
0.04 0.04 0.04 0.04 0.05 0.07 0.08 0.09 0.09 0.09 0.08 0.07 0.05 0.05 0.05 0.04 0.03 0.02 0.01 0.01 0.01 0.01 0.01 0.01 0.02 0.02 0.03 0.04 0.05 0.05 0.06 0.06 0.06 0.06 0.06 0.06 0.06 0.06 0.04 0.03 0.03 0.03 0.03
0.03 0.04 0.05 0.04 0.04 0.04 0.04 0.05 0.06 0.06 0.05 0.05 0.04 0.04 0.04 0.03 0.02 0.02 0.02 0.02 0.02 0.03 0.03 0.04 0.04 0.04 0.05 0.06 0.05 0.05 0.05 0.05 0.05 0.05 0.05 0.04 0.05 0.05 0.04 0.02 0.02 0.02 0.03
0.03 0.04 0.05 0.03 0.03 0.03 0.02 0.03 0.04 0.04 0.03 0.03 0.03 0.03 0.03 0.03 0.02 0.01 0.02 0.02 0.03 0.04 0.05 0.05 0.04 0.03 0.04 0.05 0.04 0.03 0.03 0.02 0.02 0.03 0.04 0.05 0.05 0.05 0.04 0.03 0.02 0.02 0.02
0.04 0.03 0.03 0.03 0.03 0.03 0.05 0.05 0.04 0.03 0.03 0.03 0.03 0.04 0.03 0.03 0.02 0.02 0.02 0.02 0.02 0.03 0.03 0.02 0.02 0.02 0.03 0.03 0.04 0.03 0.03 0.02 0.02 0.02 0.03 0.05 0.05 0.05 0.05 0.04 0.03 0.03 0.03
0.03 0.03 0.03 0.04 0.04 0.05 0.06 0.06 0.07 0.06 0.04 0.04 0.04 0.04 0.05 0.05 0.05 0.05 0.04 0.04 0.04 0.03 0.03 0.02 0.02 0.02 0.02 0.02 0.03 0.04 0.04 0.03 0.03 0.02 0.03 0.03 0.04 0.05 0.06 0.06 0.05 0.04 0.03
MSLP
1011.24 1011.39 1011.56 1011.69 1011.77 1011.78 1011.73 1011.65 1011.54 1011.45 1011.37 1011.34 1011.33 1011.33 1011.34 1011.33 1011.32 1011.30 1011.28 1011.28 1011.31 1011.38 1011.49 1011.63 1011.76 1011.87 1011.93 1011.91 1011.80 1011.61 1011.35 1011.03 1010.67 1010.30 1009.93 1009.58 1009.26 1008.96 1008.69 1008.45 1008.25 1008.10 1007.99
1011.61 1011.78 1011.96 1012.12 1012.24 1012.29 1012.30 1012.26 1012.21 1012.15 1012.10 1012.07 1012.05 1012.04 1012.02 1011.99 1011.95 1011.91 1011.88 1011.88 1011.92 1011.99 1012.10 1012.22 1012.33 1012.41 1012.43 1012.37 1012.24 1012.03 1011.76 1011.46 1011.14 1010.82 1010.52 1010.22 1009.94 1009.67 1009.39 1009.11 1008.82 1008.55 1008.30
1012.21 1012.40 1012.60 1012.78 1012.93 1013.03 1013.08 1013.10 1013.10 1013.09 1013.08 1013.07 1013.05 1013.01 1012.96 1012.89 1012.81 1012.74 1012.69 1012.67 1012.69 1012.76 1012.85 1012.96 1013.04 1013.09 1013.07 1012.97 1012.81 1012.58 1012.31 1012.02 1011.74 1011.47 1011.23 1011.01 1010.78 1010.55 1010.28 1009.97 1009.63 1009.26 1008.88
1012.96 1013.17 1013.39 1013.59 1013.75 1013.88 1013.98 1014.06 1014.11 1014.16 1014.19 1014.21 1014.19 1014.15 1014.07 1013.97 1013.85 1013.73 1013.65 1013.60 1013.60 1013.64 1013.72 1013.81 1013.87 1013.89 1013.84 1013.71 1013.52 1013.27 1012.99 1012.71 1012.46 1012.23 1012.05 1011.88 1011.71 1011.52 1011.27 1010.96 1010.57 1010.13 1009.64
1013.78 1014.00 1014.22 1014.41 1014.58 1014.73 1014.86 1014.98 1015.10 1015.20 1015.28 1015.33 1015.34 1015.30 1015.20 1015.07 1014.91 1014.76 1014.63 1014.55 1014.53 1014.56 1014.62 1014.70 1014.75 1014.75 1014.69 1014.54 1014.33 1014.06 1013.77 1013.49 1013.24 1013.04 1012.89 1012.76 1012.63 1012.47 1012.25 1011.94 1011.53 1011.04 1010.48
1014.57 1014.79 1014.98 1015.16 1015.31 1015.45 1015.60 1015.75 1015.91 1016.06 1016.19 1016.29 1016.32 1016.29 1016.19 1016.04 1015.85 1015.67 1015.51 1015.41 1015.37 1015.39 1015.45 1015.52 1015.58 1015.59 1015.52 1015.36 1015.13 1014.85 1014.55 1014.25 1014.00 1013.79 1013.64 1013.53 1013.42 1013.28 1013.07 1012.78 1012.37 1011.87 1011.28
1015.27 1015.46 1015.62 1015.74 1015.86 1015.98 1016.12 1016.28 1016.46 1016.65 1016.82 1016.95 1017.01 1017.00 1016.90 1016.74 1016.55 1016.34 1016.17 1016.05 1016.00 1016.02 1016.09 1016.18 1016.25 1016.27 1016.21 1016.06 1015.83 1015.53 1015.21 1014.89 1014.61 1014.38 1014.21 1014.08 1013.97 1013.85 1013.66 1013.39 1013.01 1012.54 1011.97
1015.83 1015.98 1016.08 1016.15 1016.21 1016.29 1016.40 1016.55 1016.74 1016.94 1017.13 1017.28 1017.36 1017.36 1017.28 1017.12 1016.92 1016.71 1016.53 1016.41 1016.37 1016.40 1016.48 1016.59 1016.68 1016.72 1016.67 1016.53 1016.29 1015.98 1015.64 1015.29 1014.97 1014.70 1014.50 1014.35 1014.23 1014.11 1013.94 1013.71 1013.39 1012.97 1012.47
1016.23 1016.34 1016.39 1016.40 1016.41 1016.43 1016.50 1016.62 1016.78 1016.97 1017.16 1017.32 1017.41 1017.41 1017.34 1017.19 1017.00 1016.80 1016.63 1016.52 1016.48 1016.52 1016.62 1016.74 1016.84 1016.88 1016.85 1016.70 1016.46 1016.14 1015.77 1015.39 1015.04 1014.73 1014.49 1014.32 1014.18 1014.06 1013.93 1013.74 1013.49 1013.15 1012.74
1016.51 1016.58 1016.59 1016.56 1016.51 1016.48 1016.50 1016.57 1016.70 1016.86 1017.02 1017.16 1017.24 1017.25 1017.18 1017.04 1016.87 1016.69 1016.53 1016.44 1016.41 1016.45 1016.55 1016.66 1016.76 1016.79 1016.74 1016.59 1016.33 1015.99 1015.60 1015.19 1014.81 1014.47 1014.21 1014.01 1013.87 1013.76 1013.65 1013.52 1013.33 1013.09 1012.79
1016.69 1016.75 1016.73 1016.66 1016.58 1016.51 1016.48 1016.50 1016.58 1016.69 1016.81 1016.92 1016.98 1016.98 1016.92 1016.80 1016.65 1016.49 1016.36 1016.27 1016.25 1016.29 1016.36 1016.45 1016.51 1016.51 1016.42 1016.23 1015.94 1015.58 1015.17 1014.74 1014.34 1013.98 1013.71 1013.50 1013.36 1013.26 1013.18 1013.10 1012.98 1012.82 1012.61
1016.80 1016.86 1016.84 1016.76 1016.65 1016.55 1016.48 1016.45 1016.47 1016.53 1016.61 1016.67 1016.71 1016.71 1016.65 1016.55 1016.43 1016.30 1016.19 1016.11 1016.09 1016.09 1016.13 1016.16 1016.15 1016.09 1015.93 1015.69 1015.36 1014.97 1014.53 1014.10 1013.69 1013.34 1013.07 1012.87 1012.74 1012.65 1012.60 1012.54 1012.47 1012.37 1012.23
1016.86 1016.92 1016.91 1016.83 1016.72 1016.60 1016.49 1016.42 1016.39 1016.39 1016.41 1016.45 1016.46 1016.45 1016.41 1016.34 1016.25 1016.15 1016.06 1015.99 1015.95 1015.91 1015.88 1015.83 1015.73 1015.58 1015.34 1015.03 1014.65 1014.22 1013.77 1013.34 1012.95 1012.62 1012.37 1012.19 1012.07 1012.00 1011.95 1011.91 1011.85 1011.78 1011.67
1016.85 1016.92 1016.92 1016.85 1016.73 1016.60 1016.46 1016.35 1016.27 1016.23 1016.21 1016.20 1016.20 1016.19 1016.17 1016.13 1016.08 1016.01 1015.95 1015.88 1015.80 1015.72 1015.61 1015.45 1015.25 1014.99 1014.66 1014.27 1013.83 1013.38 1012.94 1012.52 1012.16 1011.87 1011.65 1011.50 1011.41 1011.35 1011.30 1011.25 1011.19 1011.09 1010.98
1016.77 1016.84 1016.84 1016.76 1016.64 1016.49 1016.33 1016.18 1016.06 1015.97 1015.91 1015.88 1015.86 1015.86 1015.86 1015.86 1015.84 1015.81 1015.76 1015.68 1015.57 1015.42 1015.23 1014.97 1014.66 1014.29 1013.87 1013.41 1012.94 1012.48 1012.05 1011.67 1011.36 1011.13 1010.96 1010.85 1010.78 1010.73 1010.68 1010.60 1010.51 1010.38 1010.23
1016.60 1016.65 1016.63 1016.54 1016.41 1016.23 1016.03 1015.85 1015.68 1015.55 1015.45 1015.40 1015.38 1015.39 1015.41 1015.43 1015.44 1015.43 1015.38 1015.29 1015.13 1014.92 1014.64 1014.29 1013.89 1013.43 1012.94 1012.44 1011.95 1011.50 1011.11 1010.80 1010.56 1010.40 1010.30 1010.25 1010.21 1010.17 1010.10 1010.00 1009.86 1009.68 1009.48
1016.35 1016.37 1016.31 1016.19 1016.01 1015.80 1015.57 1015.34 1015.13 1014.96 1014.83 1014.76 1014.72 1014.73 1014.75 1014.78 1014.80 1014.79 1014.73 1014.61 1014.41 1014.14 1013.78 1013.36 1012.88 1012.37 1011.84 1011.33 1010.86 1010.46 1010.14 1009.91 1009.76 1009.69 1009.67 1009.67 1009.68 1009.65 1009.58 1009.46 1009.28 1009.06 1008.81
1016.05 1016.00 1015.90 1015.73 1015.51 1015.25 1014.98 1014.70 1014.45 1014.24 1014.07 1013.96 1013.90 1013.88 1013.89 1013.90 1013.90 1013.86 1013.77 1013.61 1013.36 1013.03 1012.63 1012.16 1011.64 1011.11 1010.58 1010.10 1009.69 1009.36 1009.13 1009.01 1008.97 1008.99 1009.05 1009.13 1009.18 1009.18 1009.12 1008.99 1008.80 1008.55 1008.27
1015.70 1015.60 1015.44 1015.22 1014.96 1014.65 1014.33 1014.01 1013.72 1013.46 1013.25 1013.09 1012.98 1012.91 1012.86 1012.83 1012.77 1012.68 1012.54 1012.32 1012.02 1011.65 1011.21 1010.71 1010.20 1009.68 1009.20 1008.79 1008.46 1008.24 1008.12 1008.10 1008.17 1008.29 1008.45 1008.59 1008.69 1008.73 1008.70 1008.58 1008.39 1008.14 1007.85
1015.36 1015.21 1015.00 1014.73 1014.42 1014.08 1013.72 1013.36 1013.01 1012.70 1012.43 1012.20 1012.02 1011.88 1011.75 1011.63 1011.49 1011.32 1011.10 1010.82 1010.47 1010.06 1009.60 1009.12 1008.64 1008.18 1007.77 1007.45 1007.23 1007.12 1007.11 1007.21 1007.38 1007.59 1007.82 1008.03 1008.19 1008.27 1008.28 1008.19 1008.03 1007.81 1007.54
1015.02 1014.83 1014.59 1014.29 1013.95 1013.58 1013.18 1012.78 1012.39 1012.02 1011.68 1011.37 1011.10 1010.85 1010.62 1010.39 1010.14 1009.87 1009.57 1009.21 1008.82 1008.39 1007.94 1007.49 1007.06 1006.68 1006.37 1006.16 1006.05 1006.04 1006.14 1006.33 1006.58 1006.86 1007.15 1007.41 1007.62 1007.75 1007.80 1007.77 1007.65 1007.48 1007.26
1014.69 1014.48 1014.22 1013.91 1013.55 1013.15 1012.73 1012.29 1011.85 1011.42 1011.00 1010.60 1010.22 1009.86 1009.50 1009.15 1008.79 1008.41 1008.02 1007.61 1007.18 1006.75 1006.33 1005.93 1005.57 1005.28 1005.07 1004.96 1004.95 1005.04 1005.21 1005.46 1005.76 1006.09 1006.41 1006.70 1006.94 1007.11 1007.21 1007.23 1007.19 1007.08 1006.93
1014.33 1014.12 1013.86 1013.54 1013.17 1012.75 1012.31 1011.83 1011.34 1010.84 1010.34 1009.85 1009.36 1008.88 1008.41 1007.94 1007.47 1007.01 1006.54 1006.09 1005.65 1005.23 1004.85 1004.52 1004.25 1004.05 1003.93 1003.90 1003.97 1004.11 1004.32 1004.59 1004.90 1005.23 1005.55 1005.84 1006.10 1006.30 1006.45 1006.53 1006.56 1006.53 1006.45
1013.91 1013.70 1013.42 1013.10 1012.71 1012.28 1011.80 1011.29 1010.75 1010.19 1009.61 1009.03 1008.45 1007.87 1007.29 1006.73 1006.19 1005.66 1005.16 1004.70 1004.27 1003.89 1003.57 1003.31 1003.11 1002.99 1002.95 1002.98 1003.08 1003.24 1003.45 1003.70 1003.98 1004.27 1004.57 1004.84 1005.09 1005.32 1005.50 1005.65 1005.74 1005.80 1005.80
1013.37 1013.14 1012.85 1012.50 1012.09 1011.63 1011.12 1010.56 1009.97 1009.35 1008.72 1008.07 1007.41 1006.77 1006.13 1005.52 1004.94 1004.39 1003.89 1003.45 1003.06 1002.74 1002.48 1002.29 1002.17 1002.11 1002.11 1002.16 1002.26 1002.40 1002.58 1002.78 1003.00 1003.23 1003.47 1003.71 1003.95 1004.18 1004.39 1004.59 1004.76 1004.89 1004.96
1012.67 1012.40 1012.07 1011.68 1011.23 1010.73 1010.18 1009.58 1008.95 1008.29 1007.61 1006.93 1006.24 1005.57 1004.92 1004.30 1003.73 1003.21 1002.75 1002.35 1002.03 1001.77 1001.58 1001.46 1001.38 1001.36 1001.37 1001.42 1001.49 1001.59 1001.70 1001.82 1001.96 1002.12 1002.30 1002.50 1002.72 1002.95 1003.19 1003.43 1003.66 1003.85 1003.99
Thickness
5813 5810 5807 5804 5803 5800 5798 5796 5795 5792 5791 5788 5786 5784 5782 5779 5778 5775 5773 5771 5769 5767 5767 5765 5764 5764 5762 5762 5762 5760 5757 5754 5747 5751 5754 5755 5754 5752 5749 5747 5745 5742 5738
5812 5809 5806 5804 5801 5798 5796 5795 5793 5791 5789 5787 5785 5782 5780 5778 5776 5773 5770 5769 5766 5764 5764 5762 5761 5761 5759 5758 5756 5755 5754 5753 5748 5744 5747 5749 5748 5748 5746 5744 5742 5740 5738
5812 5808 5804 5801 5798 5796 5795 5794 5792 5789 5787 5785 5783 5780 5778 5776 5773 5771 5769 5767 5764 5762 5761 5759 5758 5756 5754 5754 5752 5751 5750 5751 5748 5744 5743 5744 5744 5743 5740 5739 5738 5737 5735
5810 5806 5801 5798 5796 5795 5793 5792 5790 5788 5785 5782 5780 5778 5775 5773 5770 5768 5766 5764 5762 5760 5759 5757 5756 5753 5751 5750 5749 5747 5746 5744 5743 5740 5738 5738 5736 5737 5734 5730 5729 5729 5729
5807 5803 5799 5798 5796 5793 5791 5789 5787 5785 5783 5780 5777 5774 5772 5769 5767 5764 5762 5761 5758 5756 5756 5755 5753 5751 5749 5747 5745 5742 5740 5737 5735 5733 5731 5730 5728 5727 5725 5724 5721 5722 5723
5803 5800 5797 5795 5793 5790 5788 5786 5784 5781 5779 5777 5774 5771 5767 5766 5763 5760 5758 5756 5754 5752 5750 5750 5748 5747 5745 5743 5741 5738 5735 5731 5729 5726 5724 5722 5721 5721 5720 5718 5715 5713 5712
5800 5797 5794 5792 5789 5787 5785 5782 5779 5777 5775 5772 5770 5767 5763 5760 5758 5755 5752 5751 5749 5748 5746 5744 5743 5743 5740 5737 5735 5732 5730 5727 5724 5720 5717 5716 5715 5716 5714 5711 5709 5707 5706
5796 5793 5791 5788 5785 5783 5779 5776 5774 5772 5769 5767 5765 5763 5760 5757 5754 5751 5748 5746 5745 5744 5742 5740 5737 5735 5734 5730 5728 5725 5723 5721 5719 5716 5715 5714 5713 5712 5710 5707 5705 5704 5704
5791 5788 5786 5783 5780 5777 5773 5771 5769 5766 5764 5762 5760 5758 5755 5752 5749 5746 5742 5741 5740 5739 5737 5735 5733 5730 5726 5723 5720 5717 5715 5714 5714 5712 5710 5708 5706 5705 5703 5700 5697 5694 5693
5786 5784 5782 5779 5775 5772 5769 5766 5764 5762 5759 5757 5755 5754 5751 5748 5744 5740 5736 5735 5733 5732 5731 5730 5727 5723 5719 5715 5712 5709 5705 5705 5706 5705 5702 5701 5700 5698 5696 5694 5691 5687 5685
5782 5779 5776 5774 5771 5768 5765 5762 5759 5756 5754 5752 5750 5749 5747 5745 5739 5734 5730 5729 5727 5725 5724 5722 5720 5716 5712 5708 5705 5703 5700 5699 5698 5696 5695 5695 5694 5692 5690 5688 5686 5682 5679
5775 5772 5769 5767 5766 5765 5759 5756 5754 5750 5747 5745 5743 5742 5741 5739 5735 5729 5725 5722 5720 5717 5716 5715 5713 5709 5705 5701 5698 5696 5694 5691 5690 5688 5687 5687 5686 5685 5684 5682 5681 5679 5676
5766 5764 5762 5761 5759 5758 5754 5750 5747 5744 5742 5739 5736 5734 5732 5732 5728 5723 5719 5716 5713 5710 5710 5707 5704 5700 5698 5695 5692 5690 5687 5684 5682 5681 5680 5679 5680 5679 5678 5676 5674 5672 5670
5757 5756 5755 5753 5752 5750 5748 5746 5742 5739 5735 5732 5730 5727 5725 5723 5721 5717 5713 5709 5705 5702 5699 5698 5695 5693 5691 5689 5687 5684 5681 5679 5677 5675 5673 5673 5673 5672 5669 5668 5665 5663 5660
5749 5748 5748 5747 5745 5742 5740 5738 5736 5734 5731 5726 5724 5722 5718 5715 5713 5709 5706 5703 5700 5696 5692 5690 5689 5686 5684 5683 5681 5679 5677 5674 5670 5668 5666 5665 5663 5662 5660 5659 5656 5654 5650
5740 5739 5739 5738 5737 5735 5732 5730 5727 5725 5722 5720 5717 5715 5713 5709 5706 5702 5698 5695 5691 5687 5683 5683 5682 5680 5678 5676 5673 5671 5669 5667 5664 5661 5659 5656 5654 5652 5651 5649 5646 5643 5640
5731 5730 5730 5729 5728 5726 5724 5721 5718 5714 5711 5709 5707 5705 5702 5698 5695 5692 5688 5685 5682 5678 5675 5676 5675 5673 5671 5668 5666 5663 5661 5660 5657 5653 5650 5648 5646 5644 5642 5639 5636 5633 5631
5722 5722 5720 5720 5720 5719 5717 5715 5713 5709 5704 5701 5698 5694 5692 5689 5685 5682 5678 5674 5673 5671 5671 5669 5667 5665 5663 5660 5658 5655 5653 5651 5648 5645 5642 5640 5638 5634 5632 5629 5627 5624 5622
5714 5713 5712 5712 5712 5711 5710 5708 5706 5703 5699 5695 5692 5687 5682 5679 5675 5671 5668 5667 5666 5664 5663 5660 5658 5656 5653 5651 5649 5646 5643 5640 5638 5635 5632 5629 5627 5624 5621 5619 5617 5614 5611
5704 5702 5702 5702 5702 5701 5700 5698 5696 5693 5690 5686 5683 5679 5675 5671 5667 5663 5659 5659 5658 5656 5654 5651 5649 5647 5644 5641 5638 5636 5633 5630 5627 5624 5621 5617 5615 5612 5610 5608 5606 5604 5602
5695 5694 5692 5692 5693 5691 5689 5687 5685 5682 5679 5676 5673 5670 5664 5662 5658 5656 5654 5650 5648 5647 5645 5642 5640 5637 5634 5631 5628 5625 5622 5618 5615 5612 5610 5606 5604 5602 5600 5598 5596 5594 5592
5684 5685 5684 5682 5682 5680 5678 5677 5675 5671 5669 5666 5663 5660 5654 5652 5650 5648 5645 5642 5640 5638 5636 5633 5629 5627 5623 5619 5617 5614 5610 5606 5603 5600 5598 5596 5593 5591 5589 5587 5585 5584 5583
5673 5673 5671 5670 5669 5667 5667 5666 5663 5661 5659 5656 5653 5650 5647 5643 5640 5637 5634 5632 5631 5629 5627 5622 5618 5615 5612 5608 5605 5601 5596 5592 5589 5587 5585 5584 5583 5581 5579 5577 5576 5574 5573
5663 5661 5660 5660 5659 5658 5656 5654 5651 5649 5647 5645 5643 5639 5636 5633 5629 5627 5625 5623 5621 5618 5616 5612 5609 5604 5600 5596 5592 5589 5585 5581 5578 5577 5575 5572 5572 5571 5569 5567 5566 5566 5564
5652 5652 5650 5649 5649 5647 5645 5643 5641 5638 5636 5633 5631 5628 5625 5622 5618 5616 5615 5613 5610 5607 5604 5601 5597 5592 5587 5583 5579 5575 5572 5569 5567 5564 5563 5562 5561 5560 5559 5558 5557 5556 5555
5643 5642 5641 5639 5638 5636 5634 5632 5628 5626 5624 5622 5620 5617 5614 5612 5609 5605 5603 5601 5597 5594 5591 5588 5584 5580 5576 5571 5567 5563 5560 5558 5556 5554 5552 5552 5551 5550 5550 5549 5548 5547 5546